Regional Weather Roundup
Issued by NWS Grand Forks, ND

Home | Current Version | Previous Version | Graphics & Text | Print | Product List | Glossary On
Versions: 1 2 3 4 5 6 7 8 9 10 11 12 13 14 15 16 17 18 19 20 21 22 23 24 25 26 27 28 29 30 31 32 33 34 35 36 37 38 39 40 41 42 43 44 45 46 47 48 49 50
000
ASUS43 KFGF 210810
RWRFGF
PRAIRIE TO PINES  WEATHER ROUNDUP
NATIONAL WEATHER SERVICE EASTERN NORTH DAKOTA/GRAND FORKS ND
300 AM CDT TUE APR 21 2015

 **SATELLITE DATA USED TO AUGMENT SKY COVER AT AUTOMATED STATIONS**
 *****  WEATHER ACROSS EASTERN NORTH DAKOTA  *****

CITY           SKY/WX    TMP DP  RH WIND       PRES   REMARKS
GRAND FORKS    CLOUDY    34  27  75 NW21G28   29.63R WCI  22
GRAND FRKS AFB CLOUDY    33  27  79 N20G26    29.63S WCI  21
GRAND FRKS NWS   N/A     32 N/A N/A N29         N/A  WCI  18
DEVILS LAKE    CLOUDY    34  25  69 N24G31    29.70S WCI  21
FARGO          CLOUDY    34  26  72 NW16      29.63S WCI  24
WAHPETON ARPT  CLOUDY    32  28  86 NW16      29.65S WCI  21
$$

 ***** WEATHER ACROSS CENTRAL AND WESTERN NORTH DAKOTA  *****

CITY           SKY/WX    TMP DP  RH WIND       PRES   REMARKS
BISMARCK       CLOUDY    37  23  56 NE15      29.80R
MINOT          CLOUDY    34  22  61 NW10      29.82R
JAMESTOWN      PTCLDY    30  24  78 NW15      29.71S WCI  19
MINOT AFB      CLOUDY    33  24  71 NW8       29.81R
GARRISON         N/A     32  29  88 N12       29.82R WCI  23
WILLISTON      CLOUDY    34  22  61 NE8       29.85S
DICKINSON      CLOUDY    33  19  56 NE9       29.77F
HETTINGER      CLOUDY    25  16  68 W6        29.78F WCI  18
$$

 *****  OTHER AIRPORT OBSERVATIONS IN OUR AREA  *****

CITY           SKY/WX    TMP DP  RH WIND       PRES   REMARKS
WALHALLA       CLOUDY    32  32 100 NW18G28   29.67S WCI  20
GRAFTON AIRPOR PTSUNNY   32  32 100 NW21G32   29.64S WCI  20
VALLEY CITY AR FLURRIES  32  27  80 NW22      29.68S WCI  19
CANDO          PTSUNNY   32  25  74 N20G29    29.74R WCI  20
CAVALIER APRT  MIX PCPN  32  28  86 N22G30    29.65S WCI  19
GWINNER        MOSUNNY   32  27  80 NW16      29.69F WCI  21
ROLLA          CLOUDY    32  25  74 N24       29.75S WCI  19
 ***** THE ABOVE OBSERVATIONS ARE NON NWS ARE NOT QUALITY
       CONTROLLED AND MAY MIS-REPORT RAIN FOR SNOW...
$$

  *****  WEATHER ACROSS NORTHERN MINNESOTA  *****

CITY           SKY/WX    TMP DP  RH WIND       PRES   REMARKS
FLAG ISLAND    CLOUDY    30  27  86 N20G30    29.47R WCI  18
WARROAD        FLURRIES  30  27  86 NW16G23   29.50R WCI  19
ROSEAU         FLURRIES  30  27  86 NW17      29.52R WCI  18
HALLOCK        CLOUDY    34  30  86 NW23G35   29.60R WCI  22
THF RVR FALLS  CLOUDY    32  27  80 NW20      29.55S WCI  20
BAUDETTE       LGT SNOW  30  28  92 NW18      29.43S FOG     WCI  18
WASKISH        CLOUDY    30  28  93 W16G23    29.45R WCI  19
CROOKSTON      CLOUDY    34  28  80 N24G30    29.60S WCI  21
$$
  *****  WEATHER ACROSS CENTRAL AND WEST MINNESOTA  *****

CITY           SKY/WX    TMP DP  RH WIND       PRES   REMARKS
FOSSTON        CLOUDY    28  27  93 NW18G24   29.54S WCI  16
BEMIDJI          N/A     30  26  84 NW17G25   29.47F WCI  18
PARK RAPIDS    CLOUDY    34  24  67 NW17      29.49F WCI  23
ELBOW LAKE     CLOUDY    32  28  86 NW22G28   29.61S WCI  19
WADENA         CLOUDY    30  23  74 NW17G25   29.53S WCI  18
DETROIT LAKES  CLOUDY    32  30  93 NW20      29.57S WCI  20
MOORHEAD       CLOUDY    34  27  75 NW16      29.63S WCI  23
FERGUS FALLS   CLOUDY    32  23  69 NW22G31   29.63S WCI  19
MORRIS MN      CLOUDY    34  28  80 NW16      29.62S WCI  23
STAPLES        CLOUDY    30  25  80 NW17      29.52S WCI  18
$$
  *****  WEATHER ELSEWHERE ACROSS MINNESOTA  *****

CITY           SKY/WX    TMP DP  RH WIND       PRES   REMARKS
DULUTH         LGT SNOW  32  27  81 W15G25    29.34S WCI  22
INTRNTL FALLS  LGT SNOW  31  28  89 NW13      29.37S FOG     WCI  21
ELY            LGT SNOW  30  30 100 W7        29.28S WCI  23
CLOQUET        CLOUDY    32  27  80 W16G22    29.37S WCI  21
WHEATON        CLOUDY    34  25  69 NW18G26   29.67S WCI  23
BRAINERD       CLOUDY    32  24  72 NW14G30   29.49S WCI  22
HIBBING        FLURRIES  31  25  78 NW15G22   29.36S WCI  20
ALEXANDRIA     CLOUDY    32  24  72 NW22G29   29.58R WCI  19
SAINT CLOUD    CLOUDY    35  25  66 W20       29.52S WCI  24
MINNEAPOLIS    CLOUDY    36  25  64 W18G24    29.52F
$$

  *****  WEATHER ACROSS SOUTH DAKOTA  *****

CITY           SKY/WX    TMP DP  RH WIND       PRES   REMARKS
SIOUX FALLS    CLEAR     32  20  61 W8        29.73S WCI  25
BROOKINGS      CLEAR     30  25  80 N6        29.70F WCI  24
WATERTOWN      CLEAR     33  25  72 W14       29.68S WCI  23
HURON          CLEAR     29  14  53 W12       29.75F WCI  19
SISSETON         N/A     33  26  75 NW20      29.66S WCI  21
ABERDEEN       CLEAR     31  20  63 NW10      29.75R WCI  22
MITCHELL       CLEAR     30  11  45 W12       29.78F WCI  20
PIERRE         CLEAR     33  21  61 W9        29.79F
MOBRIDGE       PTCLDY    29  20  69 N6        29.75F WCI  23
RAPID CITY     CLEAR     32  22  66 W6        29.85F
$$

  *****  SOME WEATHER IN NEARBY STATES *****

CITY           SKY/WX    TMP DP  RH WIND       PRES   REMARKS
GLASGOW MT     CLEAR     40  21  46 SW7       29.75S
GREAT FALLS MT CLEAR     43  27  53 CALM      29.84S
CHEYENNE WY    CLOUDY    35  23  61 W10       29.95F
SCOTTSBLUFF NE CLEAR     31  25  78 N8        29.92S WCI  23
OMAHA NE       MOCLDY    46  20  35 W13       29.80R
DES MOINES IA  CLEAR     38  22  52 NW7       29.74R
DAVENPORT IA   CLEAR     38  30  73 W14       29.66F
CHICAGO IL     CLEAR     40  31  70 W13       29.59F
EAU CLAIRE WI  LGT SNOW  34  30  85 W12       29.46S FOG
LA CROSSE WI   LGT RAIN  38  32  79 W17G24    29.52S
$$

  *****  SOME NATIONAL WEATHER *****

CITY           SKY/WX    TMP DP  RH WIND       PRES   REMARKS
LA GUARDIA NY  CLOUDY    56  53  90 NW6       29.56F
RALEIGH NC     MOCLDY    61  60  97 W5        29.75R
ATLANTA GA     CLEAR     54  44  69 NW8       29.90S
NEW ORLEANS LA MOCLDY    65  48  54 N7        29.97S
OKLAHOMA CITY  LGT RAIN  52  43  71 S10       29.96F
ALBUQUERQUE NM PTCLDY    51  24  34 CALM      29.97S
SALT LAKE CITY CLEAR     49  29  46 SE9       29.89R
LOS ANGELES CA MOCLDY    58  51  78 S3        29.92S
BOISE ID       CLEAR     50  31  48 SE8       29.83R
SEATTLE WA     PTCLDY    58  42  55 NE14      29.87R
$$

*** WEATHER ACROSS MANITOBA...SASKATCHEWAN AND ONTARIO ***
                ***ONTARIO***

CITY           SKY/WX    TMP DP  RH WIND       PRES   REMARKS
GERALDTON      LGT SNOW  30  28  93 NW5       29.11R
THUNDER BAY    FLURRIES  34  32  93 W6        29.20S
SIOUX LOOKOUT  LGT SNOW  25  23  93 N8        29.33R DRFTSNOWWCI  16
TORONTO        MOCLDY    45  37  76 SW8       29.55S
BIG TROUT LK   LGT SNOW  21  19  93 N17G26    29.49S WCI   7
PICKLE LAKE    NOT AVBL
DRYDEN         LGT SNOW  27  25  93 N12G22    29.35R WCI  16
KENORA         LGT SNOW  27  23  86 N17G26    29.44R FOG     WCI  14
$$
                *** MANITOBA***

CITY           SKY/WX    TMP DP  RH WIND       PRES   REMARKS
BRANDON        CLOUDY    34  25  69 N23       29.80R WCI  22
DAUPHIN        CLOUDY    34  27  75 N22G29    29.87R WCI  22
ISLAND LAKE    LGT SNOW  23  16  74 N15G26    29.80S DRFTSNOWWCI  10
PILOT MOUND      N/A     32  25  74 N23G38      N/A  WCI  19
THE PAS        PTCLDY    28  25  86 N5        29.98R WCI  23
THOMPSON       PTCLDY    21  18  86 NE5       30.01S WCI  15
WINNIPEG       FLURRIES  32  28  86 N24       29.66R WCI  19
LYNN LAKE      MOCLDY    25  21  86 SE3       30.01R
CHURCHILL      FLURRIES  18  14  86 NE17G23   30.15R WCI   2
GILLAM         FLURRIES  18  16  93 N23G30    30.00S WCI   0
$$
                ***SASKATCHEWAN***

CITY           SKY/WX    TMP DP  RH WIND       PRES   REMARKS
ESTEVAN        CLOUDY    32  30  93 CALM      29.86R
KINDERSLEY     CLEAR     34  27  75 E17       29.88R WCI  23
LLOYDMINSTER   CLEAR     32  28  86 SE12      29.90F WCI  23
PRINCE ALBERT  PTCLDY    21  18  86 E2        29.97R
REGINA         PTCLDY    32  27  80 NE7       29.89S
YORKTON        CLEAR     25  23  93 N8        29.90R WCI  16
N. BATTLEFORD  PTCLDY    21  21 100 VRB2      29.97R FOG
LA RONGE       PTCLDY    23  19  86 CALM      29.98R
SASKATOON      CLEAR     23  23 100 NE2       29.96R
SWIFT CURRENT  CLEAR     32  27  80 E14       29.83R WCI  22
$$
NOTE: THESE ARE AUTOMATED STATIONS WITH LIMITED QUALITY CONTROL
      "FAIR" INDICATES FEW OR NO CLOUDS BELOW 12,000 FEET WITH NO
      SIGNIFICANT WEATHER AND/OR OBSTRUCTIONS TO VISIBILITY.
      SKY/WX - SKY CONDITION AND SIGNIFICANT WEATHER.
      TMP - AIR TEMPERATURE.    DP   - DEWPOINT TEMPERATURE.
      RH  - RELATIVE HUMIDITY.  PRES - PRESSURE.
      HX  - HEAT INDEX.         WCI  - WIND CHILL INDEX.
$


USA.gov is the U.S. government's official web portal to all federal, state and local government web resources and services.